Regional Weather Roundup
Issued by NWS Charleston, SC

Current Version | Previous Version | Graphics & Text | Print | Product List | Glossary On
Versions: 1 2 3 4 5 6 7 8 9 10 11 12 13 14 15 16 17 18 19 20 21 22 23 24 25 26 27 28 29 30 31 32 33 34 35 36 37 38 39 40 41 42 43 44 45 46 47 48 49 50
000
ASUS42 KCHS 261027
RWRCHS

REGIONAL WEATHER ROUNDUP
NATIONAL WEATHER SERVICE CHARLESTON SC
600 AM EDT SUN APR 26 2015

NOTE: "FAIR" INDICATES FEW OR NO CLOUDS BELOW 12,000 FEET WITH NO
SIGNIFICANT WEATHER AND/OR OBSTRUCTIONS TO VISIBILITY.

NOT ALL STATIONS ARE QUALITY CONTROLLED BY THE NATIONAL
WEATHER SERVICE. USE DATA WITH CAUTION...ESPECIALLY
DEWPOINT OBSERVATIONS.

SCZ027-030-031-034>040-042>050-261100-
...SOUTHEAST SOUTH CAROLINA...

CITY           SKY/WX    TMP DP  RH WIND       PRES   REMARKS
N CHARLESTON   PTCLDY    64  63  94 W13       29.61S
WATERFRONT PRK   N/A     68 N/A N/A SW9         N/A
MOUNT PLEASANT FAIR      66  64  94 MISG      29.61R
PINOPOLIS      NOT AVBL
MONCKS CORNER  FAIR      64  63  94 SW8       29.60R
SUMMERVILLE    FAIR      63  63 100 SW6       29.61S
BEAUFORT MCAS  CLEAR     66  64  93 W13       29.64R
BEAUFORT ARPT  FAIR      68  64  88 W9G20     29.64R
HILTON HEAD IS NOT AVBL
WALTERBORO     SUNNY     63  61  94 SW7       29.63S
ALLENDALE      FAIR      64  63  94 VRB5      29.63R

...SOUTHERN MIDLANDS AND PEE DEE...

CITY           SKY/WX    TMP DP  RH WIND       PRES   REMARKS
GEORGETOWN     NOT AVBL
KINGSTREE      NOT AVBL
ORANGEBURG     MOCLDY    65  62  90 W10       29.60R
BARNWELL       FAIR      64  64 100 W6        29.63R
AIKEN          FAIR      61  61 100 SW8       29.64R
MANNING        FAIR      63  54  72 SW7       29.58R
COLUMBIA       PTCLDY    67  63  87 W8        29.57R
SUMTER         MOCLDY    64  63  94 W8        29.56R
FLORENCE       CLOUDY    66  64  93 W6        29.56R
MYRTLE BEACH   NOT AVBL
N MYRTLE BEACH PTCLDY    67  63  87 W9        29.54S

$$

GAZ063-065-086>088-099>101-113>116-118-119-134>141-150-261100-
...SOUTHEAST GEORGIA...

CITY           SKY/WX    TMP DP  RH WIND       PRES   REMARKS
SAVANNAH ARPT  CLEAR     65  64  97 W7        29.66R
HUNTER AAF     CLEAR     66  66 100 W8        29.64R
FORT STEWART   CLEAR     67  65  92 W7        29.66R
STATESBORO       N/A     64  64 100 W8        29.67R
SYLVANIA       SUNNY     64  64  99 W5        29.66S
CLAXTON        FAIR      64  64 100 W6        29.68R

...CSRA...CENTRAL AND FAR SOUTHEAST GEORGIA...

CITY           SKY/WX    TMP DP  RH WIND       PRES   REMARKS
THOMSON        PTCLDY    66  66 100 SW5       29.67S
AUGUSTA-BUSH   CLEAR     64  63  96 SW14      29.62R
AUGUSTA-DANIEL PTCLDY    66  62  87 SW9       29.62S
SWAINSBORO     NOT AVBL
VIDALIA        CLEAR     64  64 100 W6        29.69R
EASTMAN        FAIR      66  66 100 W6        29.72R
HAZLEHURST     FAIR      67  67 100 SW3       29.69R
ALMA           CLEAR     67  64  90 SW7       29.69S
WAYCROSS       CLEAR     72  70  95 W7        29.70R
JESUP          FAIR      70  68  94 W5        29.69R
BAXLEY         FAIR      68  64  88 W5        29.69R
BRUNSWICK      CLEAR     70  68  94 W10       29.69S
SAINT SIMONS   CLEAR     70  68  93 W10       29.68R

$$

SCZ027-028-034-036>038-045-046-048>050-GAZ119-141-261100-
...LAKE AND SUPPLEMENTAL COASTAL OBSERVATIONS...

STATION/POSITION TIME  TEMP    WIND        PRES    WAVE   SWELL
                       AIR SEA DIR/SP/G            HT/PER HT/PER/DIR
                 (UTC) (F)     (DEG/KT/KT) (MB)    (FT/S) (FT/S/D)
UPR LAKE MARION  NOT AVBL
WINYAH BAY       0900   67     240/ 10     1000.0
LAKE MURRAY      0900   68     250/ 11/ 16 1000.7S
ACE BASIN NERRS  NOT AVBL
FORT PULASKI     1000   68 70  250/ 10/ 15 1004.6R
SAPELO ISLAND    1000   71     250/ 13     1005.0R

$$

ANZ835-935-AMZ111-154-330-350-352-354-370-450-454-472-261100-
...C-MAN AND BUOY OBSERVATIONS...

STATION/POSITION TIME  TEMP    WIND        PRES    WAVE   SWELL
                       AIR SEA DIR/SP/G            HT/PER HT/PER/DIR
                 (UTC) (F)     (DEG/KT/KT) (MB)    (FT/S) (FT/S/D)
BUOY 41004       0950   71 71  240/ 19/ 25 1001.7R   5/ 4   2/ 9
BUOY 41008       0950   71 69  250/ 16/ 17 1004.4R   2/ 5
FOLLY BEACH CMAN 1000   67     240/ 10/ 14 1002.9R
CAPERS NEARSHORE 0908   69     250/ 17/ 21 1002.3R
FRIPP NEARSHORE  0900   70     250/ 16/ 17 1002.9S


STATION/POSITION TIME  TEMP    WIND        PRES    WAVE   SWELL
                       AIR SEA DIR/SP/G            HT/PER HT/PER/DIR
                 (UTC) (F)     (DEG/KT/KT) (MB)    (FT/S) (FT/S/D)
5E ST. MARYS GA  0921      69                N/A     2/ 5
FRYING PAN BUOY  0950   72 71  240/ 21/ 27 1000.5F   6/ 7
BUOY 41025       0950   61 69   20/ 14/ 17 1000.1F   3/ 8   2/130/ 8
CAPE LOOKOUT NC  1000   58      20/  8/ 10 1000.5R
BUOY 41002       0950   71 70  250/ 17/ 19 1001.8R   5/ 6   2/140/11
BUOY 41010       0920   80 79  260/ 19/ 23 1005.9R
ST AUGUSTINE FL  1000   74 68  250/  8/ 10 1007.1R


$$



USA.gov is the U.S. government's official web portal to all federal, state and local government web resources and services.